Flag for U.S.A. Weather past 2 weeks in Baltimore, Maryland, U.S.A.

Now
78 °F

Scattered clouds.


Feels Like: 79 °F
Forecast: 57 / 80 °F
Wind: 7 mph from North

Location: Baltimore-Washington International Airport

Current Time: Jul 30, 2014 at 1:24:03 PM

Latest Report: Jul 30, 2014 at 12:54 PM


Visibility: 10 mi

Pressure: 30.06 "Hg

Humidity: 36%

Dew point: 49 °F

Location of BaltimoreLocation

Historic Weather in Baltimore — Graph

°F

Baltimore temperature yesterday

Maximum temperature yesterday: 75 °F (at 2:54 PM)
Minimum temperature yesterday: 60 °F (at 5:54 AM)
Average temperature yesterday: 67 °F

Past Weeks' High & Low Weather Summary

 TemperatureHumidityPressure
High93 °F (Jul 23, 4:54 PM)97% (Jul 15, 7:54 PM)30.23 "Hg (Jul 15, 7:54 PM)
Low56 °F (Jul 30, 4:54 AM)33% (Jul 28, 2:54 PM)29.57 "Hg (Jul 28, 4:54 AM)
Average74 °F68%29.97 "Hg
* Reported Jul 15 11:54 AM — Jul 30 11:54 AM, Baltimore, Weather by CustomWeather, © 2014

Note: Actual official high and low records may vary slightly from our data, if they occured in-between our weather recording intervals... More about our weather records

Advertising

Baltimore weather history for previous 24 hours

 ConditionsComfort  
Time TempWeatherWind HumidityBarometerVisibility
11:54 AM
Jul 30
76 °FScattered clouds.7 mph40%30.07 "Hg10 mi
10:54 AM75 °FPassing clouds.No wind43%30.08 "Hg10 mi
9:54 AM73 °FSunny.3 mph48%30.07 "Hg10 mi
8:54 AM68 °FSunny.6 mph59%30.07 "Hg10 mi
7:54 AM62 °FSunny.5 mph70%30.06 "Hg10 mi
6:54 AM56 °FPassing clouds.3 mph84%30.05 "Hg10 mi
5:54 AM56 °FPassing clouds.3 mph81%30.03 "Hg10 mi
4:54 AM56 °FClear.5 mph81%30.01 "Hg10 mi
3:54 AM57 °FClear.5 mph81%30.01 "Hg10 mi
2:54 AM57 °FPassing clouds.5 mph81%30.01 "Hg10 mi
1:54 AM60 °FPassing clouds.5 mph72%30.01 "Hg10 mi
12:54 AM60 °FPassing clouds.No wind72%30.02 "Hg10 mi
11:54 PM
Jul 29
62 °FPassing clouds.3 mph73%30.01 "Hg10 mi
10:54 PM60 °FPassing clouds.6 mph75%30.01 "Hg10 mi
9:54 PM64 °FPassing clouds.No wind65%29.99 "Hg10 mi
8:54 PM67 °FScattered clouds.5 mph57%29.98 "Hg10 mi
7:54 PM70 °FBroken clouds.8 mph51%29.98 "Hg10 mi
6:54 PM73 °FBroken clouds.12 mph46%29.96 "Hg10 mi
5:54 PM74 °FPartly sunny.12 mph45%29.95 "Hg10 mi
4:54 PM75 °FScattered clouds.10 mph42%29.93 "Hg10 mi
3:54 PM75 °FBroken clouds.12 mph42%29.92 "Hg10 mi
2:54 PM75 °FBroken clouds.10 mph43%29.92 "Hg10 mi
1:54 PM72 °FBroken clouds.9 mph46%29.92 "Hg10 mi
Weather by CustomWeather, © 2014

See weather overviewHow to use our weather pages